Погода в Аспиндзе

Погода в Аспиндзе : погода сейчас, прогноз погоды и архив. Всё, что Вы хотите узнать о погоде в Аспиндзе!

Поиск расширенной информации на нашем сайте:

Полезная информация: ссангйонг кайрон ремонт

Другие новости

Новости СМИ2

Главная страница сайта

Новости сайта

03.07.2017

Напоминаем, что на нашем специализированном сайте Метеоцентр.Азия вы можете получить высокодетализированные автоматические прогнозы погоды по пунктам России, СНГ и мира в авиационном формате (включающие направление и скорость ветра, видимость, явления погоды, количество и форму облачности, нижнюю и верхнюю границу облачности).

Рекомендуем: Например, при воспроизведении рекламные экраны в спб состоянии "покоя"

Погода в Аспиндзе - сегодня

Время (UTC), дата Ветер
(°,м/с) 
Видим.   Явления Облачность Т
(°С)
Тd
(°С)
f(%) Тe
(°С)
Pmin
(гПа)
dP
(гПа)
Po
(мм)
O2
(г/м3)
Тmin Tmax R s Состояние
почвы
21 19.11.17 тихо ()   4000 м    10/10 1000 м 
[Sc]
+8.8 +3.2 68 +9  1017.6  -0.1  678  264           
00 20.11.17 тихо ()   4000 м    10/10 1000 м 
[Sc]
+6.2 +2 74 +6  1019  0.2  678  267           
03 20.11.17 тихо ()   4000 м    3/3 1000 м 
[Sc]
+3.6 +2.1 90 +4  1020.1  678  269           
06 20.11.17 тихо ()   20000 м    3/3 1000 м верхняя 
[Sc|Ci fib]
+4.2 +2.2 87 +4  1020.4  0.5  678  269  +2.1         
09 20.11.17 тихо ()   20000 м    1/1 1000 м 
[Sc]
+12.2 +3.2 54 +12  1013.3  -3.2  676  260           
12 20.11.17 тихо ()   20000 м    5/5 1000 м 
[Sc]
+15.3 +1.9 40 +15  1009.7  -2.1             
15 20.11.17 тихо ()   4000 м    8/8 1000 м 
[Sc]
+11 +0.9 50 +11  1011.7  0.2      +16.3       
18 20.11.17 тихо ()   4000 м    9/9 1000 м 
[Sc]
+9.2 +1.7 59 +9  1013.2  0.6      +16.3       
21 20.11.17 тихо ()   4000 м    9/9 1000 м 
[Sc]
+8.4 +3 69 +8  1012.2  -1.1             
00 21.11.17 тихо ()   4000 м    8/8 1000 м 
[Sc]
+7.8 +2.9 71 +8  1010.5  -0.7             
03 21.11.17 тихо ()   4000 м    10/10 1000 м 
[Sc]
+7.5 +3 73 +8  1009.7  -0.8             
06 21.11.17 тихо ()   20000 м    8/8 1000 м 
[Sc]
+13.6 +4.5 54 +14  1005.7  -1.4    +7.1         
09 21.11.17 тихо ()   20000 м    9/9 1000 м 
[Sc]
+16.4 +3 41 +16  1003.1  -1.4             
12 21.11.17 тихо ()   20000 м    10/10 1000 м 
[Frnb|Ns]
+14.3 +2.9 46 +14  1002.5  -1.1             
15 21.11.17 140 (ЮВ) 4000 м    10/10 1000 м 
[Frnb|Ns]
+13.7 +2.7 47 +13  1002  -0.8             
18 21.11.17 230 (ЮЗ) 4000 м  слаб. дождь  10/10 600 м 
[Frnb|Ns]
+11.9 +2.7 53 +10  1003.1  0.3      +16.5       
21 21.11.17 тихо ()   4000 м  в посл. час дождь  10/10 1000 м 
[Frnb|Ns]
+4.3 +2.6 89 +4  1011.6  4.7             
00 22.11.17 270 (З) 4000 м  {дождь}  10/10 1000 м 
[Sc]
+5.2 -0 69 +3  1011.9  0.7             
03 22.11.17 тихо ()   4000 м    10/10 1000 м 
[Sc]
+4.4 -0.7 69 +4  1012.6  0.2           
06 22.11.17 тихо ()   10 км    10/10 600 м 
[Frnb|Ns]
+3.6 -1.4 70 +4  1013    +3.1       
09 22.11.17 320 (СЗ) 20000 м    10/10 600 м 
[Frnb|Ns]
+5.6 -1.4 61 +4  1012.6  0.5             
12 22.11.17 320 (СЗ) 10 км    10/10 600 м 
[Frnb|Ns]
+4.2 -1.3 67 +5  1013.8  0.5             
15 22.11.17 тихо ()   4000 м    9/9 1000 м 
[Sc]
+1.4 -2.7 74 +1  1016.5  1.2      +6       
18 22.11.17 тихо ()   4000 м    ясно 
-1.3 -4.9 76 -1  1018.1  0.4  675  274    +6       
21 22.11.17 тихо ()   4000 м    8/8 1000 м 
[Sc]
-3.7 -5.4 88 -4  1017.2  -0.5             
Время (UTC), дата Ветер
(°,м/с) 
Видим.   Явления Облачность Т
(°С)
Тd
(°С)
f(%) Тe
(°С)
Pmin
(гПа)
dP
(гПа)
Po
(мм)
O2
(г/м3)
Тmin Tmax R s Состояние
почвы

Для получения пояснительной информации подведите курсор к названию столбца.

ПОГОДА в Аспиндзе - архив

Всё, что Вы хотите узнать о погоде в Аспиндзе - удобно и подробно!

Выберите нужную дату (начиная с 1 января 2015* года) и нажмите кнопку "Найти".
Будут отображены архивные сводки погоды по пункту Аспиндза, начиная с указанной даты.


Отображать данные в формате CSV (для использования в таблицах Excel)


Внимание! Наш архив погоды предназначен исключительно для личного некоммерческого использования в познавательных целях. Если Вам необходимы официальные справки о состоянии погоды (для производственных, юридических, коммерческих и т.п. целей), обращайтесь в органы Росгидромета.

*Примечание: данная дата относится к архиву по метеостанциям СССР (Россия, СНГ, Балтия).
Архив по метеостанциям Зарубежной Европы и Азии (кроме Китая) хранится 10 дней, по другим регионам земного шара (Китай, Африка, Америка, Австралия, Океания) - 1 день.

Аспиндза - район местоположения метеостанции


Название, широта, долгота, высота метеостанции:
Аспиндза 41.6°ш. 43.2°д. 983 м над ур. моря [Грузия]

Дополнительная информация

В oтличие oт бoльшинства пoгoдных сайтoв мы публикуем пoдрoбную метеoинфoрмацию в детальнoм прoфессиoнальнoм фoрмате.

Характеристики температуры и влажнoсти вoздуха измеряются на высoте 2 м в тени вдали oт зданий и деревьев.
Скoрoсть ветра измеряется на высoте 10 м (на урoвне рoста челoвека скoрoсть ветра ниже в 1.5-2 раза). Если метеoстанция нахoдится в гoрoде или в лесу, тo скoрoсть ветра занижена на 2-4 м/с пo сравнению с oткрытым местoм. Скoрoсть ветра над акватoриями крупных рек и oзёр, а также на вершинах хoлмoв на 2-5 м/с выше, чем в oбычных услoвиях.
Атмoсфернoе давление в разных тoчках местнoсти мoжет значительнo oтличаться oт давления на метеoстанции, в зависимoсти oт услoвий рельефа (при пoдъёме на 10 м давление пoнижается примернo на 1 мм рт.ст.).